Location: Kelshall
(52.0000°N, 0.0500°W)
Time: 04:16:33
(UTC+00:00)

ATLAS CENTAUR R/B - Pass Details

Date: 25 January 2021
Orbit: 475 x 670 km, 64.7° (Epoch: 06 March)

Event Time Altitude Azimuth Distance (km) Brightness Sun altitude
Exits shadow 06:01:00 12° 214° (SW) 1,557 3.4 -16.5°
Maximum altitude 06:04:25 74° 130° (SE) 501 1.2 -16.0°
Drops below altitude 10° 06:08:05 10° 46° (NE) 1,660 4.2 -15.5°
Sets 06:10:14 0° 44° (NE) 2,555 5.2 -15.1°
